[Date Prev][Date Next][Thread Prev][Thread Next] - [Date Index][Thread Index][Author Index]

MIR & ISS Keps 4-16



MIR
1 16609U 86017A   99106.45213120  .00033736  00000-0  22432-3 0  3977
2 16609  51.6618 300.1587 0012185   4.6415 355.4671 15.75009891751696
ISS (ZARYA)
1 25544U 98067A   99106.46419861  .00014175  00000-0  17816-3 0  4948
2 25544  51.5920 148.7758 0005316   3.1164 356.9839 15.59956124 22963


----
Via the sarex mailing list at AMSAT.ORG courtesy of AMSAT-NA.
To unsubscribe, send "unsubscribe sarex" to Majordomo@amsat.org



AMSAT Top AMSAT Home